Location: Aalen
(48.8330°N, 10.1000°E)
Time: 23:12:50
(UTC+02:00)

Transit 4A - Pass Details

Date: 06 August 2021
Orbit: 870 x 974 km, 66.8° (Epoch: 26 September)

Event Time Altitude Azimuth Distance (km) Brightness Sun altitude
Rises 10:15:57 0° 313° (NW) 3,484 10.5 39.9°
Reaches altitude 10° 10:19:10 10° 296° (WNW) 2,553 9.8 40.4°
Maximum altitude 10:23:03 18° 255° (WSW) 2,030 9.5 41.0°
Drops below altitude 10° 10:26:58 10° 213° (SSW) 2,582 10.3 41.6°
Sets 10:30:15 0° 196° (SSW) 3,539 11.0 42.1°
